Flag for Canada Weather past 2 weeks in Toronto, Ontario, Canada

Now
79 °F

Broken clouds.


Feels Like: 81 °F
Forecast: N/A
Wind: 2 mph from North

Location: Toronto Pearson International Airport

Current Time: Aug 21, 2014 at 4:53:42 PM

Latest Report: Aug 21, 2014 at 4:00 PM


Visibility: 15 mi

Pressure: 29.93 "Hg

Humidity: 61%

Dew point: 64 °F

Location of TorontoLocation

Historic Weather in Toronto — Graph

°F

Toronto temperature yesterday

Maximum temperature yesterday: 75 °F (at 2:00 PM)
Minimum temperature yesterday: 63 °F (at 5:00 AM)
Average temperature yesterday: 68 °F

Past Weeks' High & Low Weather Summary

 TemperatureHumidityPressure
High82 °F (Aug 11, 3:00 PM)100% (Aug 21, 6:49 AM)30.19 "Hg (Aug 21, 6:49 AM)
Low54 °F (Aug 14, 5:00 AM)36% (Aug 7, 5:00 PM)29.67 "Hg (Aug 12, 4:00 PM)
Average67 °F70%29.95 "Hg
* Reported Aug 6 3:00 PM — Aug 21 3:00 PM, Toronto, Weather by CustomWeather, © 2014

Note: Actual official high and low records may vary slightly from our data, if they occured in-between our weather recording intervals... More about our weather records

Advertising

Toronto weather history for previous 24 hours

 ConditionsComfort  
Time TempWeatherWind HumidityBarometerVisibility
3:00 PM
Aug 21
77 °FPartly sunny.3 mph65%29.93 "Hg15 mi
2:00 PM73 °FPartly sunny.6 mph78%29.95 "Hg15 mi
1:00 PM75 °FPartly sunny.9 mph69%29.95 "Hg15 mi
12:00 PM75 °FScattered showers. Partly sunny.3 mph69%29.95 "Hg15 mi
11:00 AM75 °FPartly sunny.5 mph69%29.95 "Hg15 mi
10:00 AM72 °FPartly sunny.6 mph83%29.95 "Hg15 mi
9:00 AM70 °FScattered clouds.2 mph83%29.95 "Hg10 mi
8:00 AM66 °FFog.No wind94%29.95 "Hg6 mi
7:00 AM64 °FFog.2 mph100%29.94 "Hg1 mi
6:49 AM64 °FFog.5 mph100%29.94 "Hg1 mi
6:00 AM66 °FPartly cloudy.3 mph94%29.93 "Hg8 mi
5:51 AM66 °FPartly cloudy.2 mph94%29.92 "Hg8 mi
5:00 AM66 °FLow clouds.2 mph94%29.91 "Hg8 mi
4:00 AM66 °FLow clouds.No wind94%29.91 "Hg8 mi
3:00 AM66 °FLow clouds.No wind94%29.91 "Hg8 mi
2:00 AM66 °FMostly cloudy.No wind94%29.91 "Hg8 mi
1:00 AM66 °FPassing clouds.3 mph94%29.93 "Hg8 mi
12:00 AM66 °FPartly cloudy.5 mph94%29.92 "Hg8 mi
11:00 PM
Aug 20
66 °FPartly cloudy.6 mph94%29.91 "Hg10 mi
10:00 PM68 °FMostly cloudy.2 mph88%29.91 "Hg10 mi
9:45 PM68 °FSprinkles. Mostly cloudy.3 mph88%29.90 "Hg10 mi
9:00 PM68 °FLots of rain. More clouds than sun.6 mph88%29.91 "Hg7 mi
8:00 PM72 °FMore clouds than sun.13 mph73%29.89 "Hg15 mi
7:00 PM72 °FMostly cloudy.12 mph73%29.89 "Hg15 mi
6:00 PM72 °FMore clouds than sun.13 mph78%29.90 "Hg15 mi
5:00 PM75 °FBroken clouds.9 mph74%29.89 "Hg15 mi
4:00 PM75 °FBroken clouds.12 mph69%29.88 "Hg15 mi
Weather by CustomWeather, © 2014

See weather overviewHow to use our weather pages